owner,sensor,date,latitude,longitude,air_pressure(mBar),qcFlag 
TABS,ioos:station:wmo:42046:1,2008-02-01T00:00:00Z,27.8903,-94.0367,1016.2,11111222 
TABS,ioos:station:wmo:42046:1,2008-02-01T00:30:00Z,27.8903,-94.0367,1016.92,11111222 
TABS,ioos:station:wmo:42046:1,2008-02-01T01:00:00Z,27.8903,-94.0367,1017.65,11111222 
TABS,ioos:station:wmo:42046:1,2008-02-01T01:30:00Z,27.8903,-94.0367,1018.2,11111222 
TABS,ioos:station:wmo:42046:1,2008-02-01T02:00:00Z,27.8903,-94.0367,1018.84,11111222 
TABS,ioos:station:wmo:42046:1,2008-02-01T02:30:00Z,27.8903,-94.0367,1019.04,11111222 
TABS,ioos:station:wmo:42046:1,2008-02-01T03:00:00Z,27.8903,-94.0367,1020.09,11111222 
TABS,ioos:station:wmo:42046:1,2008-02-01T03:30:00Z,27.8903,-94.0367,1020.8,11111222 
TABS,ioos:station:wmo:42046:1,2008-02-01T04:00:00Z,27.8903,-94.0367,1021.02,11111222 
TABS,ioos:station:wmo:42046:1,2008-02-01T04:30:00Z,27.8903,-94.0367,1021.73,11111222 
TABS,ioos:station:wmo:42046:1,2008-02-01T05:00:00Z,27.8903,-94.0367,1022.4,11111222 
TABS,ioos:station:wmo:42046:1,2008-02-01T05:30:00Z,27.8903,-94.0367,1023.08,11111222 
TABS,ioos:station:wmo:42046:1,2008-02-01T06:00:00Z,27.8903,-94.0367,1022.86,11111222 
TABS,ioos:station:wmo:42046:1,2008-02-01T06:30:00Z,27.8903,-94.0367,1022.97,11111222 
TABS,ioos:station:wmo:42046:1,2008-02-01T07:00:00Z,27.8903,-94.0367,1022.98,11111222 
TABS,ioos:station:wmo:42046:1,2008-02-01T07:30:00Z,27.8903,-94.0367,1023.54,11111222 
TABS,ioos:station:wmo:42046:1,2008-02-01T08:00:00Z,27.8903,-94.0367,1023.13,11111222 
TABS,ioos:station:wmo:42046:1,2008-02-01T08:30:00Z,27.8903,-94.0367,1023.54,11111222 
TABS,ioos:station:wmo:42046:1,2008-02-01T09:00:00Z,27.8903,-94.0367,1023.54,11111222 
TABS,ioos:station:wmo:42046:1,2008-02-01T09:30:00Z,27.8903,-94.0367,1023.54,11111222 
TABS,ioos:station:wmo:42046:1,2008-02-01T10:00:00Z,27.8903,-94.0367,1024.08,11111222 
TABS,ioos:station:wmo:42046:1,2008-02-01T10:30:00Z,27.8903,-94.0367,1024.16,11111222 
TABS,ioos:station:wmo:42046:1,2008-02-01T11:00:00Z,27.8903,-94.0367,1024.09,11111222 
TABS,ioos:station:wmo:42046:1,2008-02-01T11:30:00Z,27.8903,-94.0367,1024.46,11111222 
TABS,ioos:station:wmo:42046:1,2008-02-01T12:00:00Z,27.8903,-94.0367,1024.83,11111222 
TABS,ioos:station:wmo:42046:1,2008-02-01T12:30:00Z,27.8903,-94.0367,1025.1,11111222 
TABS,ioos:station:wmo:42046:1,2008-02-01T13:00:00Z,27.8903,-94.0367,1025.25,11111222 
TABS,ioos:station:wmo:42046:1,2008-02-01T13:30:00Z,27.8903,-94.0367,1025.42,11111222 
TABS,ioos:station:wmo:42046:1,2008-02-01T14:00:00Z,27.8903,-94.0367,1025.99,11111222 
TABS,ioos:station:wmo:42046:1,2008-02-01T14:30:00Z,27.8903,-94.0367,1026.4,11111222 
TABS,ioos:station:wmo:42046:1,2008-02-01T15:00:00Z,27.8903,-94.0367,1026.71,11111222 
TABS,ioos:station:wmo:42046:1,2008-02-01T15:30:00Z,27.8903,-94.0367,1027.08,11111222 
TABS,ioos:station:wmo:42046:1,2008-02-01T16:00:00Z,27.8903,-94.0367,1027.3,11111222 
TABS,ioos:station:wmo:42046:1,2008-02-01T16:30:00Z,27.8903,-94.0367,1027.26,11111222 
TABS,ioos:station:wmo:42046:1,2008-02-01T17:00:00Z,27.8903,-94.0367,1027.1,11111222 
TABS,ioos:station:wmo:42046:1,2008-02-01T17:30:00Z,27.8903,-94.0367,1026.91,11111222 
TABS,ioos:station:wmo:42046:1,2008-02-01T18:00:00Z,27.8903,-94.0367,1026.42,11111222 
TABS,ioos:station:wmo:42046:1,2008-02-01T18:30:00Z,27.8903,-94.0367,1025.94,11111222 
TABS,ioos:station:wmo:42046:1,2008-02-01T19:00:00Z,27.8903,-94.0367,1025.18,11111222 
TABS,ioos:station:wmo:42046:1,2008-02-01T19:30:00Z,27.8903,-94.0367,1024.8,11111222 
TABS,ioos:station:wmo:42046:1,2008-02-01T20:00:00Z,27.8903,-94.0367,1024.12,11111222 
TABS,ioos:station:wmo:42046:1,2008-02-01T20:30:00Z,27.8903,-94.0367,1023.54,11111222 
TABS,ioos:station:wmo:42046:1,2008-02-01T21:00:00Z,27.8903,-94.0367,1023.18,11111222 
TABS,ioos:station:wmo:42046:1,2008-02-01T21:30:00Z,27.8903,-94.0367,1023.13,11111222 
TABS,ioos:station:wmo:42046:1,2008-02-01T22:00:00Z,27.8903,-94.0367,1022.97,11111222 
TABS,ioos:station:wmo:42046:1,2008-02-01T22:30:00Z,27.8903,-94.0367,1022.65,11111222 
TABS,ioos:station:wmo:42046:1,2008-02-01T23:00:00Z,27.8903,-94.0367,1023.08,11111222 
TABS,ioos:station:wmo:42046:1,2008-02-01T23:30:00Z,27.8903,-94.0367,1021.89,11111222 
TABS,ioos:station:wmo:42046:1,2008-02-02T00:00:00Z,27.8903,-94.0367,1022.33,11111222 
TABS,ioos:station:wmo:42046:1,2008-02-02T00:30:00Z,27.8903,-94.0367,1022.21,11111222 
TABS,ioos:station:wmo:42046:1,2008-02-02T01:00:00Z,27.8903,-94.0367,1022.04,11111222 
TABS,ioos:station:wmo:42046:1,2008-02-02T01:30:00Z,27.8903,-94.0367,1022.44,11111222 
TABS,ioos:station:wmo:42046:1,2008-02-02T02:00:00Z,27.8903,-94.0367,1022.92,11111222 
TABS,ioos:station:wmo:42046:1,2008-02-02T02:30:00Z,27.8903,-94.0367,1022.44,11111222 
TABS,ioos:station:wmo:42046:1,2008-02-02T03:00:00Z,27.8903,-94.0367,1022.23,11111222 
TABS,ioos:station:wmo:42046:1,2008-02-02T03:30:00Z,27.8903,-94.0367,1021.75,11111222 
TABS,ioos:station:wmo:42046:1,2008-02-02T04:00:00Z,27.8903,-94.0367,1021.98,11111222 
TABS,ioos:station:wmo:42046:1,2008-02-02T04:30:00Z,27.8903,-94.0367,1022.04,11111222 
TABS,ioos:station:wmo:42046:1,2008-02-02T05:00:00Z,27.8903,-94.0367,1021.83,11111222 
TABS,ioos:station:wmo:42046:1,2008-02-02T05:30:00Z,27.8903,-94.0367,1021.63,11111222 
TABS,ioos:station:wmo:42046:1,2008-02-02T06:00:00Z,27.8903,-94.0367,1020.96,11111222 
TABS,ioos:station:wmo:42046:1,2008-02-02T06:30:00Z,27.8903,-94.0367,1020.7,11111222 
TABS,ioos:station:wmo:42046:1,2008-02-02T07:00:00Z,27.8903,-94.0367,1020.44,11111222 
TABS,ioos:station:wmo:42046:1,2008-02-02T07:30:00Z,27.8903,-94.0367,1020.58,11111222 
TABS,ioos:station:wmo:42046:1,2008-02-02T08:00:00Z,27.8903,-94.0367,1019.87,11111222 
TABS,ioos:station:wmo:42046:1,2008-02-02T08:30:00Z,27.8903,-94.0367,1019.75,11111222 
TABS,ioos:station:wmo:42046:1,2008-02-02T09:00:00Z,27.8903,-94.0367,1019.42,11111222 
TABS,ioos:station:wmo:42046:1,2008-02-02T09:30:00Z,27.8903,-94.0367,1019.27,11111222 
TABS,ioos:station:wmo:42046:1,2008-02-02T10:00:00Z,27.8903,-94.0367,1019.37,11111222 
TABS,ioos:station:wmo:42046:1,2008-02-02T10:30:00Z,27.8903,-94.0367,1019.51,11111222 
TABS,ioos:station:wmo:42046:1,2008-02-02T11:00:00Z,27.8903,-94.0367,1019.91,11111222 
TABS,ioos:station:wmo:42046:1,2008-02-02T11:30:00Z,27.8903,-94.0367,1020.11,11111222 
TABS,ioos:station:wmo:42046:1,2008-02-02T12:00:00Z,27.8903,-94.0367,1020.2,11111222 
TABS,ioos:station:wmo:42046:1,2008-02-02T12:30:00Z,27.8903,-94.0367,1020.38,11111222 
TABS,ioos:station:wmo:42046:1,2008-02-02T13:00:00Z,27.8903,-94.0367,1020.64,11111222 
TABS,ioos:station:wmo:42046:1,2008-02-02T13:30:00Z,27.8903,-94.0367,1020.69,11111222 
TABS,ioos:station:wmo:42046:1,2008-02-02T14:00:00Z,27.8903,-94.0367,1020.8,11111222 
TABS,ioos:station:wmo:42046:1,2008-02-02T14:30:00Z,27.8903,-94.0367,1021.21,11111222 
TABS,ioos:station:wmo:42046:1,2008-02-02T15:00:00Z,27.8903,-94.0367,1021.3,11111222 
TABS,ioos:station:wmo:42046:1,2008-02-02T15:30:00Z,27.8903,-94.0367,1021.86,11111222 
TABS,ioos:station:wmo:42046:1,2008-02-02T16:00:00Z,27.8903,-94.0367,1022.14,11111222 
TABS,ioos:station:wmo:42046:1,2008-02-02T16:30:00Z,27.8903,-94.0367,1022.21,11111222 
TABS,ioos:station:wmo:42046:1,2008-02-02T17:00:00Z,27.8903,-94.0367,1022.11,11111222 
TABS,ioos:station:wmo:42046:1,2008-02-02T17:30:00Z,27.8903,-94.0367,1021.98,11111222 
TABS,ioos:station:wmo:42046:1,2008-02-02T18:00:00Z,27.8903,-94.0367,1021.28,11111222 
TABS,ioos:station:wmo:42046:1,2008-02-02T18:30:00Z,27.8903,-94.0367,1020.58,11111222 
TABS,ioos:station:wmo:42046:1,2008-02-02T19:00:00Z,27.8903,-94.0367,1019.93,11111222 
TABS,ioos:station:wmo:42046:1,2008-02-02T19:30:00Z,27.8903,-94.0367,1019.49,11111222 
TABS,ioos:station:wmo:42046:1,2008-02-02T20:00:00Z,27.8903,-94.0367,1019.0,11111222 
TABS,ioos:station:wmo:42046:1,2008-02-02T20:30:00Z,27.8903,-94.0367,1018.71,11111222 
TABS,ioos:station:wmo:42046:1,2008-02-02T21:00:00Z,27.8903,-94.0367,1018.35,11111222 
TABS,ioos:station:wmo:42046:1,2008-02-02T21:30:00Z,27.8903,-94.0367,1018.17,11111222 
TABS,ioos:station:wmo:42046:1,2008-02-02T22:00:00Z,27.8903,-94.0367,1018.06,11111222 
TABS,ioos:station:wmo:42046:1,2008-02-02T22:30:00Z,27.8903,-94.0367,1017.98,11111222 
TABS,ioos:station:wmo:42046:1,2008-02-02T23:00:00Z,27.8903,-94.0367,1017.7,11111222 
TABS,ioos:station:wmo:42046:1,2008-02-02T23:30:00Z,27.8903,-94.0367,1017.76,11111222 
TABS,ioos:station:wmo:42046:1,2008-02-03T00:00:00Z,27.8903,-94.0367,1017.85,11111222 
TABS,ioos:station:wmo:42046:1,2008-02-03T00:30:00Z,27.8903,-94.0367,1018.44,11111222 
TABS,ioos:station:wmo:42046:1,2008-02-03T01:00:00Z,27.8903,-94.0367,1018.46,11111222 
TABS,ioos:station:wmo:42046:1,2008-02-03T01:30:00Z,27.8903,-94.0367,1018.23,11111222 
TABS,ioos:station:wmo:42046:1,2008-02-03T02:00:00Z,27.8903,-94.0367,1018.75,11111222 
TABS,ioos:station:wmo:42046:1,2008-02-03T02:30:00Z,27.8903,-94.0367,1018.63,11111222 
TABS,ioos:station:wmo:42046:1,2008-02-03T03:00:00Z,27.8903,-94.0367,1018.26,11111222 
TABS,ioos:station:wmo:42046:1,2008-02-03T03:30:00Z,27.8903,-94.0367,1018.57,11111222 
TABS,ioos:station:wmo:42046:1,2008-02-03T04:00:00Z,27.8903,-94.0367,1018.45,11111222 
TABS,ioos:station:wmo:42046:1,2008-02-03T04:30:00Z,27.8903,-94.0367,1018.6,11111222 
TABS,ioos:station:wmo:42046:1,2008-02-03T05:00:00Z,27.8903,-94.0367,1018.54,11111222 
TABS,ioos:station:wmo:42046:1,2008-02-03T05:30:00Z,27.8903,-94.0367,1018.23,11111222 
TABS,ioos:station:wmo:42046:1,2008-02-03T06:00:00Z,27.8903,-94.0367,1018.15,11111222 
TABS,ioos:station:wmo:42046:1,2008-02-03T06:30:00Z,27.8903,-94.0367,1017.77,11111222 
TABS,ioos:station:wmo:42046:1,2008-02-03T07:00:00Z,27.8903,-94.0367,1017.82,11111222 
TABS,ioos:station:wmo:42046:1,2008-02-03T07:30:00Z,27.8903,-94.0367,1017.7,11111222 
TABS,ioos:station:wmo:42046:1,2008-02-03T08:00:00Z,27.8903,-94.0367,1017.57,11111222 
TABS,ioos:station:wmo:42046:1,2008-02-03T08:30:00Z,27.8903,-94.0367,1016.88,11111222 
TABS,ioos:station:wmo:42046:1,2008-02-03T09:00:00Z,27.8903,-94.0367,1016.67,11111222 
TABS,ioos:station:wmo:42046:1,2008-02-03T09:30:00Z,27.8903,-94.0367,1016.73,11111222 
TABS,ioos:station:wmo:42046:1,2008-02-03T10:00:00Z,27.8903,-94.0367,1016.69,11111222 
TABS,ioos:station:wmo:42046:1,2008-02-03T10:30:00Z,27.8903,-94.0367,1016.45,11111222 
TABS,ioos:station:wmo:42046:1,2008-02-03T11:00:00Z,27.8903,-94.0367,1016.83,11111222 
TABS,ioos:station:wmo:42046:1,2008-02-03T11:30:00Z,27.8903,-94.0367,1017.28,11111222 
TABS,ioos:station:wmo:42046:1,2008-02-03T12:00:00Z,27.8903,-94.0367,1017.25,11111222 
TABS,ioos:station:wmo:42046:1,2008-02-03T12:30:00Z,27.8903,-94.0367,1017.19,11111222 
TABS,ioos:station:wmo:42046:1,2008-02-03T13:00:00Z,27.8903,-94.0367,1017.31,11111222 
TABS,ioos:station:wmo:42046:1,2008-02-03T13:30:00Z,27.8903,-94.0367,1017.88,11111222 
TABS,ioos:station:wmo:42046:1,2008-02-03T14:00:00Z,27.8903,-94.0367,1018.24,11111222 
TABS,ioos:station:wmo:42046:1,2008-02-03T14:30:00Z,27.8903,-94.0367,1018.51,11111222 
TABS,ioos:station:wmo:42046:1,2008-02-03T15:00:00Z,27.8903,-94.0367,1018.56,11111222 
TABS,ioos:station:wmo:42046:1,2008-02-03T15:30:00Z,27.8903,-94.0367,1019.09,11111222 
TABS,ioos:station:wmo:42046:1,2008-02-03T16:00:00Z,27.8903,-94.0367,1019.03,11111222 
TABS,ioos:station:wmo:42046:1,2008-02-03T16:30:00Z,27.8903,-94.0367,1019.0,11111222 
TABS,ioos:station:wmo:42046:1,2008-02-03T17:00:00Z,27.8903,-94.0367,1018.62,11111222 
TABS,ioos:station:wmo:42046:1,2008-02-03T17:30:00Z,27.8903,-94.0367,1018.33,11111222 
TABS,ioos:station:wmo:42046:1,2008-02-03T18:00:00Z,27.8903,-94.0367,1017.85,11111222 
TABS,ioos:station:wmo:42046:1,2008-02-03T18:30:00Z,27.8903,-94.0367,1017.38,11111222 
TABS,ioos:station:wmo:42046:1,2008-02-03T19:00:00Z,27.8903,-94.0367,1016.88,11111222 
TABS,ioos:station:wmo:42046:1,2008-02-03T19:30:00Z,27.8903,-94.0367,1016.53,11111222 
TABS,ioos:station:wmo:42046:1,2008-02-03T20:00:00Z,27.8903,-94.0367,1015.9,11111222 
TABS,ioos:station:wmo:42046:1,2008-02-03T20:30:00Z,27.8903,-94.0367,1015.53,11111222 
TABS,ioos:station:wmo:42046:1,2008-02-03T21:00:00Z,27.8903,-94.0367,1014.98,11111222 
TABS,ioos:station:wmo:42046:1,2008-02-03T21:30:00Z,27.8903,-94.0367,1014.77,11111222 
TABS,ioos:station:wmo:42046:1,2008-02-03T22:00:00Z,27.8903,-94.0367,1014.55,11111222 
TABS,ioos:station:wmo:42046:1,2008-02-03T22:30:00Z,27.8903,-94.0367,1014.53,11111222 
TABS,ioos:station:wmo:42046:1,2008-02-03T23:00:00Z,27.8903,-94.0367,1014.41,11111222 
TABS,ioos:station:wmo:42046:1,2008-02-03T23:30:00Z,27.8903,-94.0367,1014.63,11111222 
TABS,ioos:station:wmo:42046:1,2008-02-04T00:00:00Z,27.8903,-94.0367,1014.62,11111222 
TABS,ioos:station:wmo:42046:1,2008-02-04T00:30:00Z,27.8903,-94.0367,1014.88,11111222 
TABS,ioos:station:wmo:42046:1,2008-02-04T01:00:00Z,27.8903,-94.0367,1014.9,11111222 
TABS,ioos:station:wmo:42046:1,2008-02-04T01:30:00Z,27.8903,-94.0367,1014.87,11111222 
TABS,ioos:station:wmo:42046:1,2008-02-04T02:00:00Z,27.8903,-94.0367,1014.78,11111222 
TABS,ioos:station:wmo:42046:1,2008-02-04T02:30:00Z,27.8903,-94.0367,1015.07,11111222 
TABS,ioos:station:wmo:42046:1,2008-02-04T03:00:00Z,27.8903,-94.0367,1015.01,11111222 
TABS,ioos:station:wmo:42046:1,2008-02-04T03:30:00Z,27.8903,-94.0367,1015.09,11111222 
TABS,ioos:station:wmo:42046:1,2008-02-04T04:00:00Z,27.8903,-94.0367,1015.02,11111222 
TABS,ioos:station:wmo:42046:1,2008-02-04T04:30:00Z,27.8903,-94.0367,1015.06,11111222 
TABS,ioos:station:wmo:42046:1,2008-02-04T05:00:00Z,27.8903,-94.0367,1015.17,11111222 
TABS,ioos:station:wmo:42046:1,2008-02-04T05:30:00Z,27.8903,-94.0367,1014.87,11111222 
TABS,ioos:station:wmo:42046:1,2008-02-04T06:00:00Z,27.8903,-94.0367,1014.75,11111222 
TABS,ioos:station:wmo:42046:1,2008-02-04T06:30:00Z,27.8903,-94.0367,1014.81,11111222 
TABS,ioos:station:wmo:42046:1,2008-02-04T07:00:00Z,27.8903,-94.0367,1014.77,11111222 
TABS,ioos:station:wmo:42046:1,2008-02-04T07:30:00Z,27.8903,-94.0367,1014.54,11111222 
TABS,ioos:station:wmo:42046:1,2008-02-04T08:00:00Z,27.8903,-94.0367,1014.85,11111222 
TABS,ioos:station:wmo:42046:1,2008-02-04T08:30:00Z,27.8903,-94.0367,1014.39,11111222 
TABS,ioos:station:wmo:42046:1,2008-02-04T09:00:00Z,27.8903,-94.0367,1014.37,11111222 
TABS,ioos:station:wmo:42046:1,2008-02-04T09:30:00Z,27.8903,-94.0367,1013.93,11111222 
TABS,ioos:station:wmo:42046:1,2008-02-04T10:00:00Z,27.8903,-94.0367,1013.4,11111222 
TABS,ioos:station:wmo:42046:1,2008-02-04T10:30:00Z,27.8903,-94.0367,1013.13,11111222 
TABS,ioos:station:wmo:42046:1,2008-02-04T11:00:00Z,27.8903,-94.0367,1013.14,11111222 
TABS,ioos:station:wmo:42046:1,2008-02-04T11:30:00Z,27.8903,-94.0367,1013.35,11111222 
TABS,ioos:station:wmo:42046:1,2008-02-04T12:00:00Z,27.8903,-94.0367,1013.24,11111222 
TABS,ioos:station:wmo:42046:1,2008-02-04T12:30:00Z,27.8903,-94.0367,1013.33,11111222 
TABS,ioos:station:wmo:42046:1,2008-02-04T13:00:00Z,27.8903,-94.0367,1013.74,11111222 
TABS,ioos:station:wmo:42046:1,2008-02-04T13:30:00Z,27.8903,-94.0367,1013.83,11111222 
TABS,ioos:station:wmo:42046:1,2008-02-04T14:00:00Z,27.8903,-94.0367,1014.17,11111222 
TABS,ioos:station:wmo:42046:1,2008-02-04T14:30:00Z,27.8903,-94.0367,1014.5,11111222 
TABS,ioos:station:wmo:42046:1,2008-02-04T15:00:00Z,27.8903,-94.0367,1014.84,11111222 
TABS,ioos:station:wmo:42046:1,2008-02-04T15:30:00Z,27.8903,-94.0367,1015.04,11111222 
TABS,ioos:station:wmo:42046:1,2008-02-04T16:00:00Z,27.8903,-94.0367,1015.08,11111222 
TABS,ioos:station:wmo:42046:1,2008-02-04T16:30:00Z,27.8903,-94.0367,1015.1,11111222 
TABS,ioos:station:wmo:42046:1,2008-02-04T17:00:00Z,27.8903,-94.0367,1014.85,11111222 
TABS,ioos:station:wmo:42046:1,2008-02-04T17:30:00Z,27.8903,-94.0367,1014.56,11111222 
TABS,ioos:station:wmo:42046:1,2008-02-04T18:00:00Z,27.8903,-94.0367,1013.75,11111222 
TABS,ioos:station:wmo:42046:1,2008-02-04T18:30:00Z,27.8903,-94.0367,1013.15,11111222 
TABS,ioos:station:wmo:42046:1,2008-02-04T19:00:00Z,27.8903,-94.0367,1012.49,11111222 
TABS,ioos:station:wmo:42046:1,2008-02-04T19:30:00Z,27.8903,-94.0367,1012.09,11111222 
TABS,ioos:station:wmo:42046:1,2008-02-04T20:00:00Z,27.8903,-94.0367,1011.65,11111222 
TABS,ioos:station:wmo:42046:1,2008-02-04T20:30:00Z,27.8903,-94.0367,1011.47,11111222 
TABS,ioos:station:wmo:42046:1,2008-02-04T21:00:00Z,27.8903,-94.0367,1011.22,11111222 
TABS,ioos:station:wmo:42046:1,2008-02-04T21:30:00Z,27.8903,-94.0367,1010.55,11111222 
TABS,ioos:station:wmo:42046:1,2008-02-04T22:00:00Z,27.8903,-94.0367,1010.53,11111222 
TABS,ioos:station:wmo:42046:1,2008-02-04T22:30:00Z,27.8903,-94.0367,1011.02,11111222 
TABS,ioos:station:wmo:42046:1,2008-02-04T23:00:00Z,27.8903,-94.0367,1010.89,11111222 
TABS,ioos:station:wmo:42046:1,2008-02-04T23:30:00Z,27.8903,-94.0367,1011.17,11111222 
TABS,ioos:station:wmo:42046:1,2008-02-05T00:00:00Z,27.8903,-94.0367,1011.42,11111222 
TABS,ioos:station:wmo:42046:1,2008-02-05T00:30:00Z,27.8903,-94.0367,1011.67,11111222 
TABS,ioos:station:wmo:42046:1,2008-02-05T01:00:00Z,27.8903,-94.0367,1011.84,11111222 
TABS,ioos:station:wmo:42046:1,2008-02-05T01:30:00Z,27.8903,-94.0367,1011.96,11111222 
TABS,ioos:station:wmo:42046:1,2008-02-05T02:00:00Z,27.8903,-94.0367,1011.93,11111222 
TABS,ioos:station:wmo:42046:1,2008-02-05T02:30:00Z,27.8903,-94.0367,1011.85,11111222 
TABS,ioos:station:wmo:42046:1,2008-02-05T03:00:00Z,27.8903,-94.0367,1012.06,11111222 
TABS,ioos:station:wmo:42046:1,2008-02-05T03:30:00Z,27.8903,-94.0367,1011.68,11111222 
TABS,ioos:station:wmo:42046:1,2008-02-05T04:00:00Z,27.8903,-94.0367,1011.68,11111222 
TABS,ioos:station:wmo:42046:1,2008-02-05T04:30:00Z,27.8903,-94.0367,1011.76,11111222 
TABS,ioos:station:wmo:42046:1,2008-02-05T05:00:00Z,27.8903,-94.0367,1011.48,11111222 
TABS,ioos:station:wmo:42046:1,2008-02-05T05:30:00Z,27.8903,-94.0367,1011.32,11111222 
TABS,ioos:station:wmo:42046:1,2008-02-05T06:00:00Z,27.8903,-94.0367,1010.81,11111222 
TABS,ioos:station:wmo:42046:1,2008-02-05T06:30:00Z,27.8903,-94.0367,1010.84,11111222 
TABS,ioos:station:wmo:42046:1,2008-02-05T07:00:00Z,27.8903,-94.0367,1010.64,11111222 
TABS,ioos:station:wmo:42046:1,2008-02-05T07:30:00Z,27.8903,-94.0367,1010.74,11111222 
TABS,ioos:station:wmo:42046:1,2008-02-05T08:00:00Z,27.8903,-94.0367,1010.24,11111222 
TABS,ioos:station:wmo:42046:1,2008-02-05T08:30:00Z,27.8903,-94.0367,1010.11,11111222 
TABS,ioos:station:wmo:42046:1,2008-02-05T09:00:00Z,27.8903,-94.0367,1010.15,11111222 
TABS,ioos:station:wmo:42046:1,2008-02-05T09:30:00Z,27.8903,-94.0367,1009.56,11111222 
TABS,ioos:station:wmo:42046:1,2008-02-05T10:00:00Z,27.8903,-94.0367,1009.82,11111222 
TABS,ioos:station:wmo:42046:1,2008-02-05T10:30:00Z,27.8903,-94.0367,1009.81,11111222 
TABS,ioos:station:wmo:42046:1,2008-02-05T11:00:00Z,27.8903,-94.0367,1009.77,11111222 
TABS,ioos:station:wmo:42046:1,2008-02-05T11:30:00Z,27.8903,-94.0367,1009.58,11111222 
TABS,ioos:station:wmo:42046:1,2008-02-05T12:00:00Z,27.8903,-94.0367,1009.88,11111222 
TABS,ioos:station:wmo:42046:1,2008-02-05T12:30:00Z,27.8903,-94.0367,1009.8,11111222 
TABS,ioos:station:wmo:42046:1,2008-02-05T13:00:00Z,27.8903,-94.0367,1010.39,11111222 
TABS,ioos:station:wmo:42046:1,2008-02-05T13:30:00Z,27.8903,-94.0367,1010.39,11111222 
TABS,ioos:station:wmo:42046:1,2008-02-05T14:00:00Z,27.8903,-94.0367,1009.88,11111222 
TABS,ioos:station:wmo:42046:1,2008-02-05T14:30:00Z,27.8903,-94.0367,1009.89,11111222 
TABS,ioos:station:wmo:42046:1,2008-02-05T15:00:00Z,27.8903,-94.0367,1010.23,11111222 
TABS,ioos:station:wmo:42046:1,2008-02-05T15:30:00Z,27.8903,-94.0367,1010.49,11111222 
TABS,ioos:station:wmo:42046:1,2008-02-05T16:00:00Z,27.8903,-94.0367,1010.14,11111222 
TABS,ioos:station:wmo:42046:1,2008-02-05T16:30:00Z,27.8903,-94.0367,1009.77,11111222 
TABS,ioos:station:wmo:42046:1,2008-02-05T17:00:00Z,27.8903,-94.0367,1009.51,11111222 
TABS,ioos:station:wmo:42046:1,2008-02-05T17:30:00Z,27.8903,-94.0367,1009.12,11111222 
TABS,ioos:station:wmo:42046:1,2008-02-05T18:00:00Z,27.8903,-94.0367,1008.83,11111222 
TABS,ioos:station:wmo:42046:1,2008-02-05T18:30:00Z,27.8903,-94.0367,1007.85,11111222 
TABS,ioos:station:wmo:42046:1,2008-02-05T19:00:00Z,27.8903,-94.0367,1006.97,11111222 
TABS,ioos:station:wmo:42046:1,2008-02-05T19:30:00Z,27.8903,-94.0367,1006.8,11111222 
TABS,ioos:station:wmo:42046:1,2008-02-05T20:00:00Z,27.8903,-94.0367,1006.46,11111222 
TABS,ioos:station:wmo:42046:1,2008-02-05T20:30:00Z,27.8903,-94.0367,1006.43,11111222 
TABS,ioos:station:wmo:42046:1,2008-02-05T21:00:00Z,27.8903,-94.0367,1006.44,11111222 
TABS,ioos:station:wmo:42046:1,2008-02-05T21:30:00Z,27.8903,-94.0367,1006.45,11111222 
TABS,ioos:station:wmo:42046:1,2008-02-05T22:00:00Z,27.8903,-94.0367,1006.88,11111222 
TABS,ioos:station:wmo:42046:1,2008-02-05T22:30:00Z,27.8903,-94.0367,1007.04,11111222 
TABS,ioos:station:wmo:42046:1,2008-02-05T23:00:00Z,27.8903,-94.0367,1006.39,11111222 
TABS,ioos:station:wmo:42046:1,2008-02-05T23:30:00Z,27.8903,-94.0367,1006.62,11111222 
TABS,ioos:station:wmo:42046:1,2008-02-06T00:00:00Z,27.8903,-94.0367,1006.92,11111222 
TABS,ioos:station:wmo:42046:1,2008-02-06T00:30:00Z,27.8903,-94.0367,1006.95,11111222 
TABS,ioos:station:wmo:42046:1,2008-02-06T01:00:00Z,27.8903,-94.0367,1007.07,11111222 
TABS,ioos:station:wmo:42046:1,2008-02-06T01:30:00Z,27.8903,-94.0367,1007.27,11111222 
TABS,ioos:station:wmo:42046:1,2008-02-06T02:00:00Z,27.8903,-94.0367,1007.33,11111222 
TABS,ioos:station:wmo:42046:1,2008-02-06T02:30:00Z,27.8903,-94.0367,1008.07,11111222 
TABS,ioos:station:wmo:42046:1,2008-02-06T03:00:00Z,27.8903,-94.0367,1007.63,11111222 
TABS,ioos:station:wmo:42046:1,2008-02-06T03:30:00Z,27.8903,-94.0367,1008.04,11111222 
TABS,ioos:station:wmo:42046:1,2008-02-06T04:00:00Z,27.8903,-94.0367,1008.91,11111222 
TABS,ioos:station:wmo:42046:1,2008-02-06T04:30:00Z,27.8903,-94.0367,1009.47,11111222 
TABS,ioos:station:wmo:42046:1,2008-02-06T05:00:00Z,27.8903,-94.0367,1010.59,11111222 
TABS,ioos:station:wmo:42046:1,2008-02-06T05:30:00Z,27.8903,-94.0367,1010.73,11111222 
TABS,ioos:station:wmo:42046:1,2008-02-06T06:00:00Z,27.8903,-94.0367,1011.24,11111222 
TABS,ioos:station:wmo:42046:1,2008-02-06T06:30:00Z,27.8903,-94.0367,1011.01,11111222 
TABS,ioos:station:wmo:42046:1,2008-02-06T07:00:00Z,27.8903,-94.0367,1010.87,11111222 
TABS,ioos:station:wmo:42046:1,2008-02-06T07:30:00Z,27.8903,-94.0367,1010.33,11111222 
TABS,ioos:station:wmo:42046:1,2008-02-06T08:00:00Z,27.8903,-94.0367,1011.42,11111222 
TABS,ioos:station:wmo:42046:1,2008-02-06T08:30:00Z,27.8903,-94.0367,1011.26,11111222 
TABS,ioos:station:wmo:42046:1,2008-02-06T09:00:00Z,27.8903,-94.0367,1013.06,11111222 
TABS,ioos:station:wmo:42046:1,2008-02-06T09:30:00Z,27.8903,-94.0367,1013.53,11111222 
TABS,ioos:station:wmo:42046:1,2008-02-06T10:00:00Z,27.8903,-94.0367,1013.68,11111222 
TABS,ioos:station:wmo:42046:1,2008-02-06T10:30:00Z,27.8903,-94.0367,1013.69,11111222 
TABS,ioos:station:wmo:42046:1,2008-02-06T11:00:00Z,27.8903,-94.0367,1014.42,11111222 
TABS,ioos:station:wmo:42046:1,2008-02-06T11:30:00Z,27.8903,-94.0367,1015.41,11111222 
TABS,ioos:station:wmo:42046:1,2008-02-06T12:00:00Z,27.8903,-94.0367,1015.68,11111222 
TABS,ioos:station:wmo:42046:1,2008-02-06T12:30:00Z,27.8903,-94.0367,1015.96,11111222 
TABS,ioos:station:wmo:42046:1,2008-02-06T13:00:00Z,27.8903,-94.0367,1015.85,11111222 
TABS,ioos:station:wmo:42046:1,2008-02-06T13:30:00Z,27.8903,-94.0367,1016.64,11111222 
TABS,ioos:station:wmo:42046:1,2008-02-06T14:00:00Z,27.8903,-94.0367,1017.74,11111222 
TABS,ioos:station:wmo:42046:1,2008-02-06T14:30:00Z,27.8903,-94.0367,1018.18,11111222 
TABS,ioos:station:wmo:42046:1,2008-02-06T15:00:00Z,27.8903,-94.0367,1019.02,11111222 
TABS,ioos:station:wmo:42046:1,2008-02-06T15:30:00Z,27.8903,-94.0367,1019.56,11111222 
TABS,ioos:station:wmo:42046:1,2008-02-06T16:00:00Z,27.8903,-94.0367,1019.75,11111222 
TABS,ioos:station:wmo:42046:1,2008-02-06T16:30:00Z,27.8903,-94.0367,1020.06,11111222 
TABS,ioos:station:wmo:42046:1,2008-02-06T17:00:00Z,27.8903,-94.0367,1020.17,11111222 
TABS,ioos:station:wmo:42046:1,2008-02-06T17:30:00Z,27.8903,-94.0367,1019.93,11111222 
TABS,ioos:station:wmo:42046:1,2008-02-06T18:00:00Z,27.8903,-94.0367,1020.09,11111222 
TABS,ioos:station:wmo:42046:1,2008-02-06T18:30:00Z,27.8903,-94.0367,1019.15,11111222 